ALK132 VOBL-VCBI

Flight info

Callsign ALK132
Flight time 1h 3m
Altitude 37000
Route AKTIM8A AKTIM V45 TTR G325 IDIBI IDIBI1A
Aircraft A332/H-SDE3GHIJ2J3J5M1RVWXY/LB2D1

Departure

Time 2026-05-06 15:32
Airport Kempegowda International Airport Bengaluru (VOBL)

Arrival

Time 2026-05-06 16:35
Airport Bandaranaike International Colombo Airport (VCBI)
Time Latitude Longitude Altitude Speed Heading
2026-05-06 14:42 13.20361 77.69454 3015 ft 0 kts
2026-05-06 15:16 13.20356 77.69454 3015 ft 3 kts
2026-05-06 15:16 13.20337 77.69454 3018 ft 3 kts
2026-05-06 15:17 13.20329 77.69453 3020 ft 3 kts 359°
2026-05-06 15:17 13.20309 77.69459 3024 ft 3 kts 306°
2026-05-06 15:17 13.20299 77.69474 3015 ft 3 kts 304°
2026-05-06 15:17 13.20294 77.69480 3015 ft 0 kts 299°
2026-05-06 15:18 13.20293 77.69484 3020 ft 3 kts 308°
2026-05-06 15:19 13.20280 77.69497 3021 ft 3 kts 300°
2026-05-06 15:19 13.20275 77.69507 3025 ft 0 kts 269°
2026-05-06 15:23 13.20275 77.69506 3025 ft 0 kts 269°
2026-05-06 15:23 13.20275 77.69500 3021 ft 1 kts 269°
2026-05-06 15:23 13.20275 77.69487 3023 ft 2 kts 270°
2026-05-06 15:24 13.20275 77.69461 3019 ft 6 kts 270°
2026-05-06 15:24 13.20275 77.69413 3015 ft 7 kts 270°
2026-05-06 15:24 13.20283 77.69361 3015 ft 7 kts 295°
2026-05-06 15:24 13.20323 77.69334 3015 ft 7 kts 341°
2026-05-06 15:25 13.20369 77.69333 3015 ft 7 kts 359°
2026-05-06 15:25 13.20423 77.69332 3015 ft 8 kts
2026-05-06 15:25 13.20463 77.69333 3015 ft 9 kts
2026-05-06 15:25 13.20525 77.69331 3015 ft 6 kts 339°
2026-05-06 15:26 13.20538 77.69310 3015 ft 3 kts 291°
2026-05-06 15:26 13.20542 77.69267 3015 ft 10 kts 271°
2026-05-06 15:26 13.20543 77.69165 3015 ft 18 kts 271°
2026-05-06 15:26 13.20544 77.69008 3014 ft 26 kts 270°
2026-05-06 15:27 13.20546 77.68818 3015 ft 26 kts 271°
2026-05-06 15:27 13.20547 77.68711 3015 ft 11 kts 270°
2026-05-06 15:27 13.20553 77.68634 3015 ft 8 kts 301°
2026-05-06 15:27 13.20593 77.68616 3015 ft 0 kts 360°
2026-05-06 15:29 13.20615 77.68616 3015 ft 7 kts 360°
2026-05-06 15:29 13.20693 77.68617 3015 ft 13 kts
2026-05-06 15:30 13.20721 77.68659 3015 ft 8 kts 96°
2026-05-06 15:30 13.20720 77.68684 3015 ft 0 kts 93°
2026-05-06 15:30 13.20719 77.68711 3015 ft 14 kts 91°
2026-05-06 15:30 13.20716 77.69026 3015 ft 76 kts 90°
2026-05-06 15:31 13.20710 77.69780 3015 ft 133 kts 90°
2026-05-06 15:31 13.20702 77.70916 3031 ft 183 kts 90°
2026-05-06 15:31 13.20693 77.72285 3563 ft 195 kts 90°
2026-05-06 15:32 13.21569 77.74708 5392 ft 185 kts 57°
2026-05-06 15:32 13.22310 77.75867 5907 ft 206 kts 56°
2026-05-06 15:32 13.23129 77.77163 6358 ft 226 kts 57°
2026-05-06 15:32 13.24001 77.78593 6867 ft 244 kts 58°
2026-05-06 15:33 13.24913 77.80126 7350 ft 259 kts 58°
2026-05-06 15:33 13.25865 77.81748 7934 ft 268 kts 59°
2026-05-06 15:33 13.26754 77.83452 8609 ft 273 kts 71°
2026-05-06 15:33 13.26976 77.85364 9262 ft 277 kts 89°
2026-05-06 15:34 13.26946 77.87389 9812 ft 289 kts 91°
2026-05-06 15:34 13.26885 77.89477 10589 ft 294 kts 91°
2026-05-06 15:34 13.26835 77.91587 11444 ft 297 kts 91°
2026-05-06 15:34 13.26787 77.93725 12222 ft 303 kts 93°
2026-05-06 15:35 13.26409 77.95919 12582 ft 323 kts 109°
2026-05-06 15:35 13.25264 77.97964 12867 ft 343 kts 133°
2026-05-06 15:35 13.23320 77.99427 13348 ft 354 kts 152°
2026-05-06 15:35 13.21057 78.00436 13643 ft 357 kts 161°
2026-05-06 15:36 13.18686 78.01175 13696 ft 357 kts 165°
2026-05-06 15:36 13.16260 78.01795 13701 ft 358 kts 167°
2026-05-06 15:36 13.13865 78.02382 13698 ft 358 kts 167°
2026-05-06 15:36 13.11440 78.02999 13699 ft 358 kts 166°
2026-05-06 15:37 13.09027 78.03651 13699 ft 359 kts 165°
2026-05-06 15:37 13.06618 78.04335 13698 ft 359 kts 164°
2026-05-06 15:37 13.04238 78.05034 13701 ft 359 kts 164°
2026-05-06 15:37 13.01836 78.05752 13742 ft 359 kts 164°
2026-05-06 15:38 12.99433 78.06476 14131 ft 362 kts 164°
2026-05-06 15:38 12.97004 78.07208 14922 ft 364 kts 164°
2026-05-06 15:38 12.94555 78.07946 15711 ft 367 kts 164°
2026-05-06 15:38 12.92120 78.08677 16420 ft 370 kts 164°
2026-05-06 15:39 12.89625 78.09425 17115 ft 374 kts 164°
2026-05-06 15:39 12.87110 78.10178 17793 ft 378 kts 164°
2026-05-06 15:39 12.84561 78.10940 18446 ft 382 kts 164°
2026-05-06 15:39 12.82036 78.11695 19067 ft 385 kts 164°
2026-05-06 15:40 12.79438 78.12471 19699 ft 389 kts 164°
2026-05-06 15:40 12.76825 78.13252 20312 ft 392 kts 164°
2026-05-06 15:40 12.74190 78.14039 20884 ft 396 kts 164°
2026-05-06 15:40 12.71535 78.14832 21449 ft 399 kts 164°
2026-05-06 15:41 12.68854 78.15633 21996 ft 402 kts 164°
2026-05-06 15:41 12.66151 78.16440 22523 ft 406 kts 164°
2026-05-06 15:41 12.63459 78.17243 23043 ft 409 kts 164°
2026-05-06 15:41 12.60721 78.18061 23525 ft 412 kts 164°
2026-05-06 15:42 12.57938 78.18891 24023 ft 415 kts 164°
2026-05-06 15:42 12.55151 78.19722 24503 ft 418 kts 164°
2026-05-06 15:42 12.52341 78.20560 24958 ft 421 kts 164°
2026-05-06 15:42 12.49518 78.21402 25404 ft 424 kts 164°
2026-05-06 15:43 12.46714 78.22238 25840 ft 427 kts 164°
2026-05-06 15:43 12.43851 78.23091 26262 ft 429 kts 164°
2026-05-06 15:43 12.40961 78.23953 26671 ft 432 kts 164°
2026-05-06 15:43 12.38061 78.24816 27083 ft 435 kts 164°
2026-05-06 15:44 12.35151 78.25683 27494 ft 438 kts 164°
2026-05-06 15:44 12.32208 78.26560 27890 ft 440 kts 164°
2026-05-06 15:44 12.29258 78.27438 28282 ft 443 kts 164°
2026-05-06 15:44 12.26325 78.28311 28655 ft 445 kts 164°
2026-05-06 15:45 12.23323 78.29204 29026 ft 448 kts 164°
2026-05-06 15:45 12.20321 78.30097 29393 ft 451 kts 164°
2026-05-06 15:45 12.17301 78.30995 29759 ft 453 kts 164°
2026-05-06 15:45 12.14264 78.31898 30097 ft 456 kts 164°
2026-05-06 15:46 12.11206 78.32807 30449 ft 458 kts 164°
2026-05-06 15:46 12.08168 78.33711 30784 ft 461 kts 164°
2026-05-06 15:46 12.05076 78.34629 31123 ft 463 kts 164°
2026-05-06 15:46 12.01978 78.35550 31457 ft 465 kts 164°
2026-05-06 15:47 11.98850 78.36479 31768 ft 468 kts 164°
2026-05-06 15:47 11.95704 78.37413 32091 ft 470 kts 164°
2026-05-06 15:47 11.92561 78.38346 32514 ft 470 kts 164°
2026-05-06 15:47 11.89432 78.39274 32965 ft 468 kts 164°
2026-05-06 15:48 11.86336 78.40193 33379 ft 467 kts 164°
2026-05-06 15:48 11.83196 78.41125 33750 ft 467 kts 164°
2026-05-06 15:48 11.80108 78.42041 34145 ft 466 kts 164°
2026-05-06 15:48 11.77003 78.42961 34549 ft 465 kts 164°
2026-05-06 15:49 11.73899 78.43881 34948 ft 464 kts 164°
2026-05-06 15:49 11.70796 78.44801 35316 ft 463 kts 164°
2026-05-06 15:49 11.67704 78.45717 35669 ft 462 kts 164°
2026-05-06 15:49 11.64612 78.46633 36016 ft 461 kts 164°
2026-05-06 15:50 11.61535 78.47545 36343 ft 460 kts 164°
2026-05-06 15:50 11.58456 78.48456 36630 ft 460 kts 164°
2026-05-06 15:50 11.55369 78.49370 36889 ft 461 kts 164°
2026-05-06 15:50 11.52326 78.50271 36994 ft 459 kts 164°
2026-05-06 15:51 11.46221 78.52077 37002 ft 453 kts 164°
2026-05-06 15:51 11.40157 78.53870 37000 ft 452 kts 164°
2026-05-06 15:52 11.34127 78.55653 36999 ft 454 kts 164°
2026-05-06 15:52 11.28035 78.57452 37000 ft 455 kts 164°
2026-05-06 15:53 11.21983 78.59240 37001 ft 454 kts 164°
2026-05-06 15:53 11.15922 78.61029 37000 ft 452 kts 164°
2026-05-06 15:54 11.09890 78.62809 37000 ft 451 kts 164°
2026-05-06 15:54 11.03880 78.64582 37000 ft 451 kts 164°
2026-05-06 15:55 10.97855 78.66358 37000 ft 451 kts 164°
2026-05-06 15:55 10.91807 78.68140 37000 ft 451 kts 164°
2026-05-06 15:56 10.85803 78.69909 37000 ft 451 kts 164°
2026-05-06 15:56 10.79761 78.71688 37000 ft 451 kts 164°
2026-05-06 15:57 10.73741 78.73497 37000 ft 451 kts 163°
2026-05-06 15:57 10.67747 78.75377 37000 ft 451 kts 163°
2026-05-06 15:58 10.61746 78.77271 37000 ft 451 kts 163°
2026-05-06 15:58 10.55744 78.79158 37000 ft 451 kts 163°
2026-05-06 15:59 10.49770 78.81029 37000 ft 451 kts 163°
2026-05-06 15:59 10.43771 78.82905 37000 ft 451 kts 163°
2026-05-06 16:00 10.37763 78.84784 37000 ft 451 kts 163°
2026-05-06 16:00 10.31742 78.86666 37000 ft 451 kts 163°
2026-05-06 16:01 10.25777 78.88531 37000 ft 451 kts 163°
2026-05-06 16:01 10.19772 78.90407 37000 ft 451 kts 163°
2026-05-06 16:02 10.13770 78.92281 37000 ft 451 kts 163°
2026-05-06 16:02 10.07754 78.94159 37000 ft 451 kts 163°
2026-05-06 16:03 10.01787 78.96021 37000 ft 451 kts 163°
2026-05-06 16:03 9.95785 78.97893 37000 ft 451 kts 163°
2026-05-06 16:04 9.89813 78.99755 37000 ft 451 kts 163°
2026-05-06 16:04 9.83827 79.01620 37000 ft 451 kts 163°
2026-05-06 16:05 9.77830 79.03489 37000 ft 451 kts 163°
2026-05-06 16:05 9.71828 79.05358 37000 ft 451 kts 163°
2026-05-06 16:06 9.65828 79.07226 37000 ft 450 kts 163°
2026-05-06 16:06 9.59869 79.09080 37000 ft 450 kts 163°
2026-05-06 16:07 9.53872 79.10946 37000 ft 450 kts 163°
2026-05-06 16:07 9.47866 79.12826 37000 ft 451 kts 162°
2026-05-06 16:08 9.41886 79.14741 37000 ft 451 kts 162°
2026-05-06 16:08 9.35927 79.16650 37000 ft 450 kts 162°
2026-05-06 16:09 9.29935 79.18569 37000 ft 450 kts 162°
2026-05-06 16:09 9.23980 79.20475 37000 ft 451 kts 162°
2026-05-06 16:10 9.18026 79.22380 37000 ft 451 kts 162°
2026-05-06 16:10 9.12024 79.24299 37000 ft 450 kts 162°
2026-05-06 16:11 9.06023 79.26217 36733 ft 458 kts 162°
2026-05-06 16:11 9.02946 79.27201 35952 ft 464 kts 162°
2026-05-06 16:11 8.99871 79.28183 35000 ft 473 kts 162°
2026-05-06 16:12 8.96717 79.29190 34071 ft 479 kts 162°
2026-05-06 16:12 8.93502 79.30217 33206 ft 483 kts 162°
2026-05-06 16:12 8.90313 79.31236 32350 ft 485 kts 162°
2026-05-06 16:12 8.88160 79.31923 31798 ft 487 kts 162°
2026-05-06 16:13 8.83879 79.33291 30841 ft 485 kts 162°
2026-05-06 16:13 8.81767 79.34064 30453 ft 482 kts 158°
2026-05-06 16:13 8.78704 79.35429 29850 ft 478 kts 155°
2026-05-06 16:13 8.74711 79.37306 29049 ft 472 kts 155°
2026-05-06 16:14 8.71752 79.38716 28467 ft 468 kts 155°
2026-05-06 16:14 8.69797 79.39650 28069 ft 465 kts 155°
2026-05-06 16:14 8.66898 79.41039 27479 ft 461 kts 155°
2026-05-06 16:14 8.63991 79.42433 26893 ft 457 kts 155°
2026-05-06 16:15 8.61161 79.43792 26309 ft 453 kts 155°
2026-05-06 16:15 8.58316 79.45157 25719 ft 449 kts 155°
2026-05-06 16:15 8.55507 79.46506 25133 ft 445 kts 155°
2026-05-06 16:15 8.52709 79.47849 24530 ft 441 kts 155°
2026-05-06 16:16 8.49965 79.49166 23942 ft 437 kts 155°
2026-05-06 16:16 8.47218 79.50484 23355 ft 433 kts 155°
2026-05-06 16:16 8.44520 79.51778 22631 ft 426 kts 155°
2026-05-06 16:16 8.41883 79.53044 21694 ft 419 kts 155°
2026-05-06 16:17 8.39283 79.54291 21130 ft 403 kts 155°
2026-05-06 16:17 8.36825 79.55470 20669 ft 387 kts 155°
2026-05-06 16:17 8.34410 79.56629 20199 ft 380 kts 155°
2026-05-06 16:17 8.32016 79.57777 19723 ft 378 kts 155°
2026-05-06 16:18 8.29671 79.58901 19272 ft 376 kts 155°
2026-05-06 16:18 8.27310 79.60033 18808 ft 373 kts 155°
2026-05-06 16:18 8.24957 79.61160 18355 ft 371 kts 155°
2026-05-06 16:18 8.22655 79.62264 17897 ft 368 kts 155°
2026-05-06 16:19 8.22070 79.62544 17790 ft 368 kts 155°
2026-05-06 16:19 8.20112 79.63483 17379 ft 366 kts 155°
2026-05-06 16:19 8.17813 79.64585 16926 ft 365 kts 155°
2026-05-06 16:19 8.15544 79.65671 16474 ft 364 kts 155°
2026-05-06 16:20 8.13242 79.66773 15408 ft 369 kts 155°
2026-05-06 16:20 8.10907 79.67891 15158 ft 376 kts 155°
2026-05-06 16:20 8.08540 79.69026 14885 ft 370 kts 155°
2026-05-06 16:20 8.06243 79.70126 14458 ft 366 kts 155°
2026-05-06 16:21 8.03954 79.71221 14004 ft 365 kts 155°
2026-05-06 16:21 8.01674 79.72312 13515 ft 363 kts 155°
2026-05-06 16:21 7.99399 79.73401 13026 ft 360 kts 155°
2026-05-06 16:21 7.97147 79.74479 12573 ft 356 kts 155°
2026-05-06 16:22 7.94911 79.75548 12131 ft 353 kts 154°
2026-05-06 16:22 7.92693 79.76609 11675 ft 350 kts 154°
2026-05-06 16:22 7.90490 79.77662 11222 ft 348 kts 154°
2026-05-06 16:22 7.88359 79.78682 11035 ft 336 kts 154°
2026-05-06 16:23 7.86277 79.79677 10977 ft 320 kts 154°
2026-05-06 16:23 7.84332 79.80607 10904 ft 306 kts 154°
2026-05-06 16:23 7.82428 79.81518 10802 ft 296 kts 154°
2026-05-06 16:23 7.80604 79.82390 10576 ft 292 kts 154°
2026-05-06 16:24 7.78752 79.83276 10187 ft 294 kts 154°
2026-05-06 16:24 7.76888 79.84167 9831 ft 295 kts 154°
2026-05-06 16:24 7.75045 79.85049 9458 ft 295 kts 153°
2026-05-06 16:24 7.73181 79.85940 9127 ft 294 kts 154°
2026-05-06 16:25 7.71340 79.86820 8787 ft 292 kts 154°
2026-05-06 16:25 7.69534 79.87682 8451 ft 290 kts 154°
2026-05-06 16:25 7.67696 79.88561 8112 ft 288 kts 154°
2026-05-06 16:25 7.65890 79.89423 7774 ft 286 kts 154°
2026-05-06 16:26 7.64098 79.90279 7424 ft 284 kts 154°
2026-05-06 16:26 7.62335 79.91122 7110 ft 283 kts 154°
2026-05-06 16:26 7.60562 79.91969 6770 ft 281 kts 154°
2026-05-06 16:26 7.58803 79.92809 6432 ft 279 kts 154°
2026-05-06 16:27 7.57052 79.93645 6092 ft 278 kts 154°
2026-05-06 16:27 7.55309 79.94477 5745 ft 275 kts 154°
2026-05-06 16:27 7.53590 79.95298 5415 ft 273 kts 154°
2026-05-06 16:27 7.51878 79.96116 5079 ft 271 kts 154°
2026-05-06 16:28 7.50175 79.96927 4755 ft 270 kts 154°
2026-05-06 16:28 7.48483 79.97735 4409 ft 268 kts 154°
2026-05-06 16:28 7.46805 79.98537 4072 ft 265 kts 155°
2026-05-06 16:28 7.45146 79.99329 3757 ft 263 kts 155°
2026-05-06 16:29 7.43508 80.00112 3596 ft 255 kts 155°
2026-05-06 16:29 7.41949 80.00857 3506 ft 243 kts 155°
2026-05-06 16:29 7.40447 80.01574 3403 ft 234 kts 155°
2026-05-06 16:29 7.39014 80.02235 3344 ft 225 kts 160°
2026-05-06 16:30 7.37481 80.02432 3135 ft 220 kts 187°
2026-05-06 16:30 7.36499 80.02219 2999 ft 218 kts 198°
2026-05-06 16:30 7.34772 80.01231 2692 ft 215 kts 217°
2026-05-06 16:30 7.33612 80.00285 2535 ft 222 kts 217°
2026-05-06 16:31 7.32392 79.99329 2485 ft 215 kts 217°
2026-05-06 16:31 7.31252 79.98450 2488 ft 199 kts 214°
2026-05-06 16:31 7.30159 79.97628 2493 ft 195 kts 216°
2026-05-06 16:31 7.29092 79.96798 2348 ft 193 kts 216°
2026-05-06 16:32 7.28059 79.95998 2091 ft 182 kts 215°
2026-05-06 16:32 7.27083 79.95249 1838 ft 170 kts 215°
2026-05-06 16:32 7.26175 79.94553 1625 ft 157 kts 215°
2026-05-06 16:32 7.25343 79.93914 1430 ft 144 kts 216°
2026-05-06 16:33 7.24571 79.93323 1244 ft 137 kts 216°
2026-05-06 16:33 7.23819 79.92737 1022 ft 136 kts 217°
2026-05-06 16:33 7.23083 79.92135 876 ft 135 kts 216°
2026-05-06 16:34 7.21563 79.91000 581 ft 137 kts 216°
2026-05-06 16:34 7.20806 79.90412 407 ft 137 kts 216°
2026-05-06 16:34 7.20045 79.89845 241 ft 136 kts 213°
2026-05-06 16:34 7.19291 79.89275 67 ft 135 kts 216°
2026-05-06 16:35 7.18589 79.88739 33 ft 111 kts 218°
2026-05-06 16:35 7.18061 79.88336 33 ft 74 kts 217°
2026-05-06 16:35 7.17908 79.88220 33 ft 9 kts 203°
2026-05-06 16:35 7.17859 79.88231 34 ft 7 kts 142°
2026-05-06 16:36 7.17824 79.88274 33 ft 9 kts 128°
2026-05-06 16:36 7.17819 79.88280 33 ft 0 kts 128°
2026-05-06 16:36 7.17818 79.88282 32 ft 2 kts 128°
2026-05-06 16:37 7.17802 79.88303 32 ft 6 kts 127°
2026-05-06 16:37 7.17792 79.88344 31 ft 7 kts 77°
2026-05-06 16:37 7.17826 79.88379 31 ft 7 kts 36°
2026-05-06 16:37 7.17852 79.88418 31 ft 7 kts 82°
2026-05-06 16:38 7.17836 79.88465 31 ft 8 kts 123°
2026-05-06 16:38 7.17797 79.88516 31 ft 10 kts 128°
2026-05-06 16:38 7.17747 79.88573 31 ft 10 kts 147°
2026-05-06 16:38 7.17711 79.88569 31 ft 5 kts 205°
2026-05-06 16:39 7.17678 79.88544 31 ft 7 kts 218°
2026-05-06 16:39 7.17645 79.88519 31 ft 0 kts 218°